Вернуться в каталог

TITAN 34D TRANSTAGE DEB

АктивенGTO
NORAD 22669·DEBRIS·🇺🇸 United States

Запущен Sep 2, 1988 с Cape Canaveral Space Force Station

Loading…

TLE

УстаревающийSource: Space-Track

Эпоха: Sep 14, 2026, 19:30 UTC

1 22669U 88077E   26257.81287362  .00000424  00000-0  13468-2 0  9998
2 22669  26.2780 178.1845 7354543  49.9278 354.1059  2.11803738 56018

Отслеживайте TITAN 34D TRANSTAGE DEB в реальном времени с AllMySat

Download on the App Store